Regional Weather Roundup
Issued by NWS Columbia, SC

Home | Current Version | Previous Version | Text Only | Print | Product List | Glossary On
Versions: 1 2 3 4 5 6 7 8 9 10 11 12 13 14 15 16 17 18 19 20 21 22 23 24 25 26 27 28 29 30 31 32 33 34 35 36 37 38 39 40 41 42 43 44 45 46 47 48 49 50
000
ASUS42 KCAE 051910
RWRCAE
REGIONAL WEATHER ROUNDUP
NATIONAL WEATHER SERVICE COLUMBIA SC
300 PM EDT THU MAY 05 2016

NOTE: "FAIR" INDICATES FEW OR NO CLOUDS BELOW 12,000 FEET WITH NO
SIGNIFICANT WEATHER AND/OR OBSTRUCTIONS TO VISIBILITY.

NOT ALL STATIONS ARE QUALITY CONTROLLED BY THE NATIONAL
WEATHER SERVICE. USE DATA WITH CAUTION...ESPECIALLY
DEWPOINT OBSERVATIONS.

SCZ001>056-GAZ040-063>065-077-052000-
...UPSTATE SOUTH CAROLINA...

CITY           SKY/WX    TMP DP  RH WIND       PRES   REMARKS
ANDERSON       PTSUNNY   65  35  33 NW22G33   29.69R
LIBERTY        MOCLDY    58  39  49 NW12G18   29.69R
SPARTANBURG    MOSUNNY   63  32  31 NW17G24   29.65S
CLEMSON        MOSUNNY   64  35  34 NW18G26   29.71S
GREENVILLE     PTSUNNY   60  36  40 W15       29.68R
GREENWOOD      CLOUDY    61  37  41 W6G20     29.69R
GREER          CLOUDY    62  36  37 NW9G20    29.66S
ROCK HILL      PTSUNNY   62  41  46 N10       29.64S
CHESTER        LGT RAIN  59  37  44 NW8       29.65R
LAURENS        RAIN      61  41  48 NW5       29.67S


...CENTRAL SOUTH CAROLINA...

CITY           SKY/WX    TMP DP  RH WIND       PRES   REMARKS
COLUMBIA APT   PTSUNNY   66  38  35 W20       29.64R
COLUMBIA OWENS PTSUNNY   67  36  31 W12G22    29.64R
MCENTIRE ANGB  PTSUNNY   66  42  40 W14       29.62S
ORANGEBURG     PTSUNNY   64  47  53 W10       29.64R
SUMTER SHAW    MOSUNNY   67  40  38 W15G24    29.59R
NEWBERRY       PTCLDY    64  43  45 NW13G18   29.68F
AIKEN          FAIR      66  36  32 W16G30    29.69R
BARNWELL       FAIR      72  43  35 W15G21    29.66S
MANNING        FAIR      68  41  37 NW12G18   29.60S
CAMDEN           N/A    N/A N/A N/A MISG        N/A
LANCASTER      MOCLDY    59  46  63 NE5       29.63F
WINNSBORO      CLEAR     64  37  36 W16G22    29.63S


...EASTERN AND COASTAL SOUTH CAROLINA...

CITY           SKY/WX    TMP DP  RH WIND       PRES   REMARKS
MYRTLE BEACH   MOSUNNY   66  45  45 NW14G23   29.58R
N MYRTLE BCH   PTSUNNY   70  52  52 NW16G23   29.53R
CONWAY         FAIR      64  50  59 NW10G22   29.58R
MARION         FAIR      64  50  59 NW10G18   29.58F
HARTSVILLE     CLOUDY    52  45  76 CALM      29.62R
FLORENCE       RAIN      54  46  74 W22G37    29.61R
DARLINGTON     MOSUNNY   63  45  51 NW20      29.61R
CHARLESTON APT MOSUNNY   72  40  31 W20G26    29.61R
MOUNT PLEASANT FAIR      72  45  37 W16G23    29.60R
WALTERBORO     PTCLDY    72  39  30 W16G23    29.63F
BEAUFORT       PTSUNNY   70  41  34 NW18G29   29.65R


...EASTERN GEORGIA...

CITY           SKY/WX    TMP DP  RH WIND       PRES   REMARKS
AUGUSTA BUSH F MOSUNNY   70  37  29 NW20      29.67S
AUGUSTA DANIEL MOSUNNY   69  38  32 NW20G32   29.68S
THOMSON        PTSUNNY   67  44  42 NW23      29.76S
WASHINGTON       N/A     63  37  39 NW10G25   29.72S
CLAXTON        FAIR      72  44  36 W23G33    29.70S
SYLVANIA       PTCLDY    71  42  34 NW24G31   29.68S HAZE
STATESBORO     PTSUNNY   71  44  38 NW24G32   29.69S
SAVANNAH       PTSUNNY   73  40  30 W18G32    29.66F


...SOUTHERN NORTH CAROLINA...

CITY           SKY/WX    TMP DP  RH WIND       PRES   REMARKS
CHARLOTTE      CLOUDY    63  40  42 VRB5      29.63F
MONROE         PTSUNNY   61  41  47 N8        29.63R
WADESBORO      MOCLDY    61  44  52 NW16      29.63S
ROCKINGHAM     MOCLDY    57  48  72 N13G20    29.62S
RUTHERFORDTON  CLOUDY    59  32  36 N8G17     29.67R
ASHEVILLE      LGT RAIN  55  36  48 NW22G32   29.71S

$$



USA.gov is the U.S. government's official web portal to all federal, state and local government web resources and services.